Location: Unspecified
(0.0000°N, 0.0000°E)
Time: 00:30:24
(UTC+00:00)

STARLINK-31363 - Pass Details

Date: 03 May 2025
Orbit: 482 x 484 km, 43.0° (Epoch: 16 May)

Event Time Altitude Azimuth Distance (km) Brightness Sun altitude
Rises 18:21:00 0° 194° (SSW) 2,532 7.0 -5.8°
Reaches altitude 10° 18:24:08 10° 166° (SSE) 1,651 5.8 -6.6°
Maximum altitude 18:26:01 13° 136° (SE) 1,455 5.3 -7.0°
Drops below altitude 10° 18:27:53 10° 106° (ESE) 1,648 5.3 -7.5°
Enters shadow 18:28:07 - 103° (ESE) 1,697 5.4 -7.5°
